Flag for Uzbekistan Weather past 2 weeks in Tashkent, Uzbekistan

Now
39 °F

Passing clouds.


Feels Like: 36 °F
Forecast: 29 / 51 °F
Wind: 5 mph from East

Location: Tashkent

Current Time: Dec 22, 2014 at 7:20:22 AM

Latest Report: Dec 22, 2014 at 6:30 AM


Visibility: N/A

Pressure: 29.98 "Hg

Humidity: 61%

Dew point: 27 °F

Location of TashkentLocation

Historic Weather in Tashkent — Graph

°F

Tashkent temperature yesterday

Maximum temperature yesterday: 48 °F (at 3:30 PM)
Minimum temperature yesterday: 37 °F (at 10:30 PM)
Average temperature yesterday: 43 °F

Past Weeks' High & Low Weather Summary

 TemperatureHumidityPressure
High52 °F (Dec 15, 12:30 PM)100% (Dec 7, 7:00 AM)30.95 "Hg (Dec 7, 7:00 AM)
Low10 °F (Dec 8, 8:00 AM)25% (Dec 8, 2:30 PM)29.98 "Hg (Dec 22, 5:00 AM)
Average33 °F67%30.40 "Hg
* Reported Dec 7 6:00 AM — Dec 22 6:00 AM, Tashkent, Weather by CustomWeather, © 2014

Note: Actual official high and low records may vary slightly from our data, if they occured in-between our weather recording intervals... More about our weather records

Advertising

Tashkent weather history for previous 24 hours

 ConditionsComfort  
Time TempWeatherWind HumidityBarometerVisibility
6:00 AM
Dec 22
37 °FClear.3 mph65%29.98 "Hg10 mi
5:30 AM39 °FClear.9 mph65%29.98 "Hg10 mi
5:00 AM41 °FClear.7 mph61%29.98 "Hg10 mi
4:30 AM41 °FClear.7 mph66%30.01 "Hg10 mi
4:00 AM41 °FClear.7 mph66%30.01 "Hg10 mi
3:30 AM41 °FClear.7 mph66%30.01 "Hg10 mi
3:00 AM41 °FClear.9 mph66%30.01 "Hg10 mi
2:00 AM41 °FClear.9 mph66%30.01 "Hg10 mi
1:30 AM39 °FClear.9 mph75%30.01 "Hg10 mi
1:00 AM41 °FClear.8 mph66%30.01 "Hg10 mi
12:30 AM39 °FClear.8 mph70%30.04 "Hg10 mi
12:00 AM41 °FClear.7 mph70%30.04 "Hg10 mi
11:30 PM
Dec 21
41 °FClear.7 mph70%30.04 "Hg10 mi
11:00 PM41 °FPassing clouds.9 mph70%30.04 "HgN/A
10:30 PM37 °FClear.9 mph81%30.07 "Hg10 mi
10:00 PM39 °FClear.9 mph75%30.07 "Hg10 mi
9:30 PM41 °FClear.8 mph70%30.07 "Hg10 mi
9:00 PM39 °FClear.8 mph75%30.07 "Hg10 mi
8:30 PM39 °FClear.5 mph75%30.07 "Hg10 mi
8:00 PM43 °FClear.6 mph71%30.07 "Hg10 mi
7:30 PM41 °FClear.7 mph76%30.07 "Hg10 mi
7:00 PM41 °FClear.6 mph76%30.07 "Hg10 mi
6:30 PM43 °FClear.7 mph71%30.07 "Hg10 mi
6:00 PM43 °FClear.9 mph76%30.07 "Hg10 mi
5:30 PM43 °FClear.9 mph76%30.07 "Hg10 mi
5:00 PM45 °FClear.9 mph76%30.07 "Hg10 mi
4:00 PM48 °FSunny.13 mph71%30.07 "Hg10 mi
3:30 PM48 °FPartly sunny.15 mph66%30.07 "HgN/A
3:00 PM46 °FPartly sunny.20 mph71%30.07 "HgN/A
2:30 PM46 °FPartly sunny.21 mph71%30.07 "Hg4 mi
2:00 PM46 °FSprinkles. Overcast.18 mph76%30.07 "Hg4 mi
1:30 PM45 °FOvercast.14 mph81%30.09 "Hg4 mi
1:00 PM45 °FSprinkles. Fog.10 mph76%30.09 "Hg2 mi
12:30 PM43 °FSprinkles. Fog.7 mph81%30.12 "Hg2 mi
12:00 PM41 °FSprinkles. Fog.6 mph81%30.15 "Hg2 mi
11:30 AM41 °FSprinkles. Fog.6 mph76%30.15 "Hg2 mi
11:00 AM43 °FSprinkles. Overcast.3 mph61%30.15 "Hg2 mi
10:30 AM43 °FSprinkles. Mostly cloudy.3 mph61%30.15 "Hg2 mi
10:00 AM41 °FMore clouds than sun.5 mph61%30.15 "Hg2 mi
9:30 AM41 °FMore clouds than sun.5 mph61%30.12 "Hg2 mi
9:00 AM41 °FMore clouds than sun.8 mph66%30.12 "Hg3 mi
8:30 AM41 °FMore clouds than sun.5 mph70%30.12 "Hg3 mi
8:00 AM41 °FMore clouds than sun.5 mph70%30.09 "Hg4 mi
7:30 AM41 °FMostly cloudy.6 mph76%30.09 "HgN/A
7:00 AM41 °FMostly cloudy.8 mph70%30.09 "HgN/A
Weather by CustomWeather, © 2014

See weather overviewHow to use our weather pages